Language: 


Des rapports , des résumés tant et plus, au choix de chacun....


Données statistiques de la station
Quotidien Rapport Mars 15, 2017 Unités:  Métrique    Anglais   les deux
« Précédent Jour
Suivant Jour »
Quotidien Hebdomadaire Mensuel Annuel Actuel
  Haut: Bas: Moyen:
Température: 20.3 °C 5.9 °C 12.6 °C
Pt de rosée: 13.4 °C 4.5 °C 8.5 °C
Humidité: 98 % 45 % 80 %
Vitesse du vent: 12.2 km/h 0.0 km/h 3.3 km/h
Rafales: 13.7 km/h - -
Vent:- - SSW
Pression: 1033.1 hPa 1029.0 hPa -
Précipitation: 0.0 mm    
Historical Graphs
 
 
Données statistiques pour Mars 15, 2017
Heure Température Point de rosée Pression Vent Vitesse du vent Refales Humidité Pluie (taux horaire)
00:02 10.0 °C 9.4 °C 1032.1 hPa WSW 6.1 km/h 9.3 km/h 96 % 0.0 mm
00:07 10.0 °C 9.4 °C 1032.1 hPa WSW 7.9 km/h 9.0 km/h 96 % 0.0 mm
00:12 9.9 °C 9.3 °C 1032.1 hPa WSW 10.1 km/h 10.1 km/h 96 % 0.0 mm
00:17 9.9 °C 9.3 °C 1032.1 hPa WSW 9.0 km/h 10.1 km/h 96 % 0.0 mm
00:22 9.9 °C 9.3 °C 1032.1 hPa WSW 9.0 km/h 10.8 km/h 96 % 0.0 mm
00:27 9.9 °C 9.3 °C 1032.1 hPa WSW 7.6 km/h 10.8 km/h 96 % 0.0 mm
00:32 9.9 °C 9.3 °C 1032.1 hPa WSW 7.2 km/h 11.9 km/h 96 % 0.0 mm
00:37 9.9 °C 9.3 °C 1032.1 hPa WSW 6.9 km/h 11.9 km/h 96 % 0.0 mm
00:42 9.9 °C 9.3 °C 1032.1 hPa WSW 8.7 km/h 9.7 km/h 96 % 0.0 mm
00:47 9.9 °C 9.3 °C 1032.1 hPa Calm   9.0 km/h 96 % 0.0 mm
00:52 9.9 °C 9.3 °C 1032.1 hPa WSW 6.4 km/h 7.9 km/h 96 % 0.0 mm
00:57 9.9 °C 9.3 °C 1032.1 hPa WSW 5.8 km/h 7.6 km/h 96 % 0.0 mm
01:02 9.9 °C 9.3 °C 1032.1 hPa WSW 5.8 km/h 9.3 km/h 96 % 0.0 mm
01:07 9.8 °C 9.2 °C 1032.1 hPa SW 6.1 km/h 9.3 km/h 96 % 0.0 mm
01:12 9.8 °C 9.2 °C 1031.0 hPa WSW 6.9 km/h 9.0 km/h 96 % 0.0 mm
01:17 9.8 °C 9.2 °C 1031.0 hPa WSW 6.9 km/h 9.3 km/h 96 % 0.0 mm
01:22 9.8 °C 9.2 °C 1031.0 hPa WSW 6.1 km/h 9.3 km/h 96 % 0.0 mm
01:27 9.8 °C 9.2 °C 1032.1 hPa WSW 7.6 km/h 8.7 km/h 96 % 0.0 mm
01:32 9.8 °C 9.2 °C 1032.1 hPa WSW 6.9 km/h 8.7 km/h 96 % 0.0 mm
01:37 9.8 °C 9.2 °C 1032.1 hPa WSW 7.2 km/h 7.6 km/h 96 % 0.0 mm
01:42 9.8 °C 9.2 °C 1032.1 hPa Calm   8.7 km/h 96 % 0.0 mm
01:47 9.8 °C 9.2 °C 1032.1 hPa WSW 8.7 km/h 8.7 km/h 96 % 0.0 mm
01:52 9.7 °C 9.2 °C 1031.0 hPa Calm   8.7 km/h 97 % 0.0 mm
01:57 9.7 °C 9.2 °C 1031.0 hPa Calm   6.4 km/h 97 % 0.0 mm
02:02 9.7 °C 9.2 °C 1031.0 hPa Calm   5.0 km/h 97 % 0.0 mm
02:07 9.7 °C 9.2 °C 1031.0 hPa Calm   5.0 km/h 97 % 0.0 mm
02:12 9.7 °C 9.2 °C 1031.0 hPa WSW 7.6 km/h 9.7 km/h 97 % 0.0 mm
02:17 9.7 °C 9.2 °C 1031.0 hPa WSW 9.0 km/h 9.7 km/h 97 % 0.0 mm
02:22 9.7 °C 9.2 °C 1032.1 hPa WSW 10.1 km/h 10.5 km/h 97 % 0.0 mm
02:27 9.7 °C 9.2 °C 1032.1 hPa West 9.0 km/h 11.9 km/h 97 % 0.0 mm
02:32 9.7 °C 9.2 °C 1032.1 hPa WSW 6.9 km/h 11.9 km/h 97 % 0.0 mm
02:37 9.7 °C 9.2 °C 1031.0 hPa WSW 6.1 km/h 9.3 km/h 97 % 0.0 mm
02:42 9.6 °C 9.2 °C 1031.0 hPa WSW 8.7 km/h 9.0 km/h 97 % 0.0 mm
02:47 9.6 °C 9.2 °C 1031.0 hPa WSW 6.4 km/h 9.0 km/h 97 % 0.0 mm
02:52 9.6 °C 9.2 °C 1031.0 hPa West 8.7 km/h 9.3 km/h 97 % 0.0 mm
02:57 9.6 °C 9.2 °C 1031.0 hPa West 8.7 km/h 9.7 km/h 97 % 0.0 mm
03:02 9.6 °C 9.2 °C 1031.0 hPa WSW 9.3 km/h 9.7 km/h 97 % 0.0 mm
03:07 9.7 °C 9.2 °C 1031.0 hPa West 7.9 km/h 9.7 km/h 97 % 0.0 mm
03:12 9.7 °C 9.2 °C 1030.0 hPa West 8.7 km/h 9.7 km/h 97 % 0.0 mm
03:17 9.7 °C 9.2 °C 1030.0 hPa West 7.9 km/h 10.5 km/h 97 % 0.0 mm
03:22 9.7 °C 9.2 °C 1031.0 hPa West 6.9 km/h 10.5 km/h 97 % 0.0 mm
03:28 9.7 °C 9.2 °C 1031.0 hPa Calm   9.3 km/h 97 % 0.0 mm
03:33 9.7 °C 9.2 °C 1031.0 hPa West 6.4 km/h 9.3 km/h 97 % 0.0 mm
03:38 9.7 °C 9.2 °C 1031.0 hPa West 6.9 km/h 9.3 km/h 97 % 0.0 mm
03:43 9.7 °C 9.2 °C 1031.0 hPa West 6.9 km/h 9.3 km/h 97 % 0.0 mm
03:48 9.6 °C 9.2 °C 1031.0 hPa WSW 5.5 km/h 9.3 km/h 97 % 0.0 mm
03:53 9.6 °C 9.2 °C 1030.0 hPa West 6.1 km/h 7.6 km/h 97 % 0.0 mm
03:58 9.6 °C 9.2 °C 1030.0 hPa Calm   6.4 km/h 97 % 0.0 mm
04:03 9.6 °C 9.2 °C 1030.0 hPa WSW 7.9 km/h 9.0 km/h 97 % 0.0 mm
04:08 9.6 °C 9.2 °C 1031.0 hPa WSW 6.1 km/h 10.1 km/h 97 % 0.0 mm
04:13 9.6 °C 9.2 °C 1031.0 hPa WSW 8.7 km/h 10.1 km/h 97 % 0.0 mm
04:18 9.5 °C 9.1 °C 1031.0 hPa WSW 10.1 km/h 10.1 km/h 97 % 0.0 mm
04:23 9.5 °C 9.1 °C 1030.0 hPa WSW 7.9 km/h 10.1 km/h 97 % 0.0 mm
04:28 9.5 °C 9.1 °C 1030.0 hPa West 6.9 km/h 9.7 km/h 97 % 0.0 mm
04:33 9.5 °C 9.1 °C 1030.0 hPa West 9.7 km/h 11.9 km/h 97 % 0.0 mm
04:38 9.5 °C 9.1 °C 1030.0 hPa WSW 9.3 km/h 11.9 km/h 97 % 0.0 mm
04:43 9.4 °C 8.9 °C 1031.0 hPa WSW 8.7 km/h 11.9 km/h 97 % 0.0 mm
04:48 9.4 °C 8.9 °C 1031.0 hPa WSW 7.2 km/h 9.3 km/h 97 % 0.0 mm
04:53 9.4 °C 8.9 °C 1031.0 hPa WSW 6.9 km/h 9.3 km/h 97 % 0.0 mm
04:58 9.4 °C 8.9 °C 1031.0 hPa Calm   9.0 km/h 97 % 0.0 mm
05:03 9.3 °C 8.8 °C 1031.0 hPa Calm   9.0 km/h 97 % 0.0 mm
05:08 9.3 °C 8.8 °C 1031.0 hPa Calm   6.9 km/h 97 % 0.0 mm
05:13 9.2 °C 8.8 °C 1031.0 hPa WSW 5.5 km/h 6.1 km/h 97 % 0.0 mm
05:18 9.1 °C 8.7 °C 1031.0 hPa Calm   6.1 km/h 97 % 0.0 mm
05:23 9.1 °C 8.7 °C 1031.0 hPa Calm   5.8 km/h 97 % 0.0 mm
05:28 9.1 °C 8.7 °C 1031.0 hPa WSW 5.5 km/h 6.1 km/h 97 % 0.0 mm
05:33 9.0 °C 8.6 °C 1031.0 hPa Calm   6.1 km/h 97 % 0.0 mm
05:38 9.0 °C 8.6 °C 1031.0 hPa Calm     97 % 0.0 mm
05:43 9.0 °C 8.6 °C 1031.0 hPa Calm     97 % 0.0 mm
05:48 9.0 °C 8.6 °C 1031.0 hPa Calm     97 % 0.0 mm
05:53 9.0 °C 8.6 °C 1031.0 hPa Calm     97 % 0.0 mm
05:58 9.0 °C 8.7 °C 1031.0 hPa Calm   5.0 km/h 98 % 0.0 mm
06:03 9.0 °C 8.7 °C 1031.0 hPa Calm   5.8 km/h 98 % 0.0 mm
06:08 9.0 °C 8.7 °C 1031.0 hPa Calm   5.8 km/h 98 % 0.0 mm
06:13 9.0 °C 8.7 °C 1031.0 hPa Calm     98 % 0.0 mm
06:18 8.9 °C 8.4 °C 1031.0 hPa Calm     97 % 0.0 mm
06:23 8.9 °C 8.4 °C 1031.0 hPa Calm     97 % 0.0 mm
06:28 8.8 °C 8.4 °C 1031.0 hPa Calm     97 % 0.0 mm
06:33 8.8 °C 8.4 °C 1031.0 hPa West 6.1 km/h 6.9 km/h 97 % 0.0 mm
06:38 8.7 °C 8.4 °C 1031.0 hPa Calm   6.9 km/h 98 % 0.0 mm
06:43 8.7 °C 8.4 °C 1031.0 hPa Calm   6.4 km/h 98 % 0.0 mm
06:48 8.7 °C 8.4 °C 1031.0 hPa Calm     98 % 0.0 mm
06:53 8.7 °C 8.4 °C 1031.0 hPa Calm     98 % 0.0 mm
06:58 8.7 °C 8.4 °C 1031.0 hPa Calm     98 % 0.0 mm
07:03 8.7 °C 8.4 °C 1031.0 hPa Calm   1.8 km/h 98 % 0.0 mm
07:08 8.7 °C 8.4 °C 1032.1 hPa Calm   1.8 km/h 98 % 0.0 mm
07:13 8.7 °C 8.4 °C 1032.1 hPa Calm   2.1 km/h 98 % 0.0 mm
07:18 8.8 °C 8.5 °C 1032.1 hPa Calm   2.1 km/h 98 % 0.0 mm
07:23 8.8 °C 8.5 °C 1032.1 hPa Calm   1.4 km/h 98 % 0.0 mm
07:28 8.8 °C 8.5 °C 1032.1 hPa Calm     98 % 0.0 mm
07:33 8.8 °C 8.5 °C 1032.1 hPa Calm     98 % 0.0 mm
07:38 8.8 °C 8.5 °C 1032.1 hPa Calm     98 % 0.0 mm
07:43 8.8 °C 8.5 °C 1032.1 hPa Calm     98 % 0.0 mm
07:48 8.8 °C 8.5 °C 1032.1 hPa Calm     98 % 0.0 mm
07:53 8.9 °C 8.6 °C 1033.1 hPa Calm     98 % 0.0 mm
07:58 9.0 °C 8.7 °C 1033.1 hPa Calm     98 % 0.0 mm
08:03 9.0 °C 8.7 °C 1033.1 hPa Calm     98 % 0.0 mm
08:08 9.1 °C 8.8 °C 1033.1 hPa Calm     98 % 0.0 mm
08:13 9.1 °C 8.8 °C 1033.1 hPa Calm     98 % 0.0 mm
08:18 9.1 °C 8.8 °C 1033.1 hPa Calm     98 % 0.0 mm
08:23 9.2 °C 8.9 °C 1033.1 hPa Calm     98 % 0.0 mm
08:28 9.2 °C 8.9 °C 1033.1 hPa Calm     98 % 0.0 mm
08:33 9.3 °C 9.0 °C 1033.1 hPa Calm     98 % 0.0 mm
08:38 9.4 °C 9.1 °C 1033.1 hPa Calm     98 % 0.0 mm
08:43 9.6 °C 9.3 °C 1033.1 hPa Calm     98 % 0.0 mm
08:48 9.7 °C 9.4 °C 1033.1 hPa Calm     98 % 0.0 mm
08:53 9.9 °C 9.4 °C 1033.1 hPa Calm     97 % 0.0 mm
08:58 10.1 °C 9.7 °C 1033.1 hPa Calm     97 % 0.0 mm
09:03 10.2 °C 9.7 °C 1033.1 hPa Calm     97 % 0.0 mm
09:06 10.3 °C 9.8 °C 1033.1 hPa Calm     97 % 0.0 mm
09:11 10.5 °C 10.1 °C 1033.1 hPa Calm     97 % 0.0 mm
09:16 10.7 °C 10.2 °C 1033.1 hPa Calm     97 % 0.0 mm
09:21 10.9 °C 10.4 °C 1033.1 hPa Calm     97 % 0.0 mm
09:26 11.1 °C 10.6 °C 1033.1 hPa Calm     97 % 0.0 mm
09:31 11.3 °C 10.8 °C 1033.1 hPa Calm     97 % 0.0 mm
09:36 11.6 °C 10.9 °C 1033.1 hPa Calm     96 % 0.0 mm
09:41 11.8 °C 11.2 °C 1033.1 hPa Calm     96 % 0.0 mm
09:46 11.9 °C 11.2 °C 1033.1 hPa Calm     95 % 0.0 mm
09:51 12.2 °C 11.5 °C 1033.1 hPa Calm     95 % 0.0 mm
09:56 12.3 °C 11.6 °C 1033.1 hPa Calm     95 % 0.0 mm
10:01 12.7 °C 11.9 °C 1033.1 hPa Calm     95 % 0.0 mm
10:06 13.1 °C 12.1 °C 1033.1 hPa Calm     94 % 0.0 mm
10:11 13.1 °C 12.2 °C 1033.1 hPa Calm     94 % 0.0 mm
10:16 13.5 °C 12.6 °C 1033.1 hPa Calm     94 % 0.0 mm
10:21 13.5 °C 12.4 °C 1033.1 hPa Calm   4.3 km/h 93 % 0.0 mm
10:26 13.5 °C 12.4 °C 1033.1 hPa Calm   5.0 km/h 93 % 0.0 mm
10:31 13.3 °C 12.2 °C 1033.1 hPa Calm   5.0 km/h 93 % 0.0 mm
10:36 13.1 °C 11.8 °C 1033.1 hPa Calm   5.0 km/h 92 % 0.0 mm
10:41 13.2 °C 11.9 °C 1033.1 hPa Calm   4.7 km/h 92 % 0.0 mm
10:46 13.7 °C 12.4 °C 1033.1 hPa Calm   4.0 km/h 92 % 0.0 mm
10:51 14.0 °C 12.7 °C 1033.1 hPa NE 2.1 km/h 5.8 km/h 92 % 0.0 mm
10:56 14.0 °C 12.4 °C 1033.1 hPa East 4.3 km/h 6.9 km/h 90 % 0.0 mm
11:01 14.1 °C 12.2 °C 1033.1 hPa ESE 2.6 km/h 6.9 km/h 88 % 0.0 mm
11:06 14.5 °C 12.7 °C 1033.1 hPa SE 4.0 km/h 5.5 km/h 89 % 0.0 mm
11:11 15.2 °C 13.4 °C 1033.1 hPa SSE 4.3 km/h 5.5 km/h 89 % 0.0 mm
11:16 15.9 °C 13.0 °C 1033.1 hPa Calm   5.5 km/h 83 % 0.0 mm
11:21 16.3 °C 12.4 °C 1033.1 hPa East 4.3 km/h 5.5 km/h 78 % 0.0 mm
11:26 16.4 °C 12.0 °C 1033.1 hPa ENE 5.5 km/h 6.1 km/h 75 % 0.0 mm
11:31 16.8 °C 11.1 °C 1033.1 hPa ESE 5.0 km/h 6.1 km/h 69 % 0.0 mm
11:36 17.2 °C 11.8 °C 1033.1 hPa ENE 4.7 km/h 6.1 km/h 71 % 0.0 mm
11:41 17.3 °C 12.4 °C 1033.1 hPa South 3.2 km/h 6.1 km/h 73 % 0.0 mm
11:46 17.7 °C 12.7 °C 1033.1 hPa South 6.9 km/h 7.9 km/h 73 % 0.0 mm
11:51 17.7 °C 10.7 °C 1033.1 hPa SSE 6.1 km/h 8.7 km/h 64 % 0.0 mm
11:56 17.8 °C 11.8 °C 1033.1 hPa SW 3.5 km/h 8.7 km/h 68 % 0.0 mm
12:02 17.9 °C 10.6 °C 1033.1 hPa ESE 4.0 km/h 7.6 km/h 62 % 0.0 mm
12:07 18.4 °C 11.0 °C 1033.1 hPa Calm   7.6 km/h 62 % 0.0 mm
12:12 18.7 °C 11.5 °C 1033.1 hPa SSE 2.6 km/h 6.4 km/h 63 % 0.0 mm
12:17 18.9 °C 10.7 °C 1033.1 hPa ESE 4.7 km/h 7.9 km/h 59 % 0.0 mm
12:22 18.4 °C 10.0 °C 1033.1 hPa South 5.5 km/h 10.1 km/h 58 % 0.0 mm
12:27 17.6 °C 9.2 °C 1033.1 hPa SSE 4.7 km/h 10.1 km/h 58 % 0.0 mm
12:32 17.4 °C 9.1 °C 1033.1 hPa Calm   6.9 km/h 58 % 0.0 mm
12:37 17.9 °C 8.2 °C 1033.1 hPa ENE 4.3 km/h 6.4 km/h 53 % 0.0 mm
12:42 18.3 °C 8.8 °C 1033.1 hPa ESE 3.5 km/h 5.8 km/h 54 % 0.0 mm
12:47 18.5 °C 9.6 °C 1033.1 hPa SE 2.6 km/h 5.5 km/h 56 % 0.0 mm
12:52 18.9 °C 9.9 °C 1033.1 hPa SSE 3.5 km/h 4.7 km/h 56 % 0.0 mm
12:57 19.1 °C 9.3 °C 1032.1 hPa NNW 3.5 km/h 4.3 km/h 53 % 0.0 mm
13:02 18.9 °C 8.8 °C 1032.1 hPa Calm   6.4 km/h 52 % 0.0 mm
13:07 19.3 °C 9.5 °C 1032.1 hPa SW 2.1 km/h 6.4 km/h 53 % 0.0 mm
13:12 19.3 °C 8.9 °C 1032.1 hPa SE 2.1 km/h 4.0 km/h 51 % 0.0 mm
13:17 19.3 °C 8.9 °C 1032.1 hPa WSW 5.5 km/h 9.3 km/h 51 % 0.0 mm
13:22 19.2 °C 8.5 °C 1032.1 hPa WSW 3.2 km/h 9.3 km/h 50 % 0.0 mm
13:27 19.3 °C 8.0 °C 1032.1 hPa Calm   5.5 km/h 48 % 0.0 mm
13:32 19.2 °C 7.3 °C 1032.1 hPa Calm   5.0 km/h 46 % 0.0 mm
13:37 19.4 °C 8.4 °C 1032.1 hPa WSW 5.5 km/h 5.5 km/h 49 % 0.0 mm
13:42 19.5 °C 8.5 °C 1031.0 hPa WSW 6.4 km/h 7.9 km/h 49 % 0.0 mm
13:47 19.5 °C 8.5 °C 1031.0 hPa Calm   7.9 km/h 49 % 0.0 mm
13:52 19.5 °C 8.2 °C 1031.0 hPa Calm   7.2 km/h 48 % 0.0 mm
13:57 19.8 °C 8.4 °C 1031.0 hPa Calm   5.8 km/h 48 % 0.0 mm
14:02 19.7 °C 8.1 °C 1031.0 hPa North 5.5 km/h 5.5 km/h 47 % 0.0 mm
14:07 19.6 °C 8.0 °C 1032.1 hPa WNW 6.9 km/h 7.9 km/h 47 % 0.0 mm
14:12 19.4 °C 7.8 °C 1032.1 hPa Calm   9.0 km/h 47 % 0.0 mm
14:17 19.0 °C 7.4 °C 1032.1 hPa North 5.0 km/h 9.0 km/h 47 % 0.0 mm
14:22 19.1 °C 7.8 °C 1031.0 hPa NNE 2.6 km/h 8.7 km/h 48 % 0.0 mm
14:27 19.1 °C 8.1 °C 1031.0 hPa NNE 5.0 km/h 6.4 km/h 49 % 0.0 mm
14:32 18.9 °C 7.9 °C 1031.0 hPa NNE 4.3 km/h 9.0 km/h 49 % 0.0 mm
14:37 18.8 °C 7.9 °C 1031.0 hPa NE 5.0 km/h 9.0 km/h 49 % 0.0 mm
14:42 18.7 °C 7.5 °C 1031.0 hPa NNE 5.0 km/h 7.9 km/h 48 % 0.0 mm
14:47 19.2 °C 8.2 °C 1031.0 hPa West 1.8 km/h 7.9 km/h 49 % 0.0 mm
14:48 19.4 °C 8.4 °C 1031.0 hPa Calm   7.6 km/h 49 % 0.0 mm
14:53 19.9 °C 8.6 °C 1030.0 hPa Calm   6.1 km/h 48 % 0.0 mm
14:58 19.8 °C 8.4 °C 1030.0 hPa SSW 2.1 km/h 7.2 km/h 48 % 0.0 mm
15:03 19.9 °C 8.2 °C 1030.0 hPa SW 2.6 km/h 7.2 km/h 47 % 0.0 mm
15:08 20.0 °C 8.3 °C 1031.0 hPa Calm   6.1 km/h 47 % 0.0 mm
15:13 20.1 °C 7.8 °C 1031.0 hPa Calm   6.1 km/h 45 % 0.0 mm
15:18 20.0 °C 8.0 °C 1031.0 hPa NNE 6.1 km/h 6.1 km/h 46 % 0.0 mm
15:23 20.2 °C 8.5 °C 1031.0 hPa SSW 3.2 km/h 7.2 km/h 47 % 0.0 mm
15:29 20.3 °C 8.3 °C 1031.0 hPa NW 3.2 km/h 7.2 km/h 46 % 0.0 mm
15:34 20.2 °C 8.2 °C 1031.0 hPa NNE 2.6 km/h 6.4 km/h 46 % 0.0 mm
15:39 20.3 °C 8.3 °C 1031.0 hPa Calm   4.7 km/h 46 % 0.0 mm
15:44 20.1 °C 8.1 °C 1031.0 hPa WSW 3.2 km/h 8.7 km/h 46 % 0.0 mm
15:49 20.1 °C 8.1 °C 1031.0 hPa Calm   8.7 km/h 46 % 0.0 mm
15:54 19.9 °C 7.9 °C 1031.0 hPa West 5.8 km/h 6.9 km/h 46 % 0.0 mm
15:59 19.8 °C 7.8 °C 1031.0 hPa South 2.6 km/h 6.9 km/h 46 % 0.0 mm
16:04 19.8 °C 7.8 °C 1031.0 hPa WSW 4.3 km/h 6.1 km/h 46 % 0.0 mm
16:09 19.8 °C 7.8 °C 1031.0 hPa Calm   5.5 km/h 46 % 0.0 mm
16:14 20.0 °C 8.0 °C 1031.0 hPa WSW 3.2 km/h 5.5 km/h 46 % 0.0 mm
16:19 20.0 °C 7.7 °C 1031.0 hPa Calm   4.3 km/h 45 % 0.0 mm
16:24 19.8 °C 7.5 °C 1031.0 hPa NNW 4.3 km/h 7.9 km/h 45 % 0.0 mm
16:29 19.7 °C 7.4 °C 1031.0 hPa WSW 5.0 km/h 7.9 km/h 45 % 0.0 mm
16:34 19.5 °C 7.6 °C 1031.0 hPa Calm   6.1 km/h 46 % 0.0 mm
16:39 19.5 °C 7.6 °C 1031.0 hPa WNW 6.1 km/h 6.1 km/h 46 % 0.0 mm
16:44 19.3 °C 7.1 °C 1031.0 hPa West 4.0 km/h 7.9 km/h 45 % 0.0 mm
16:49 19.3 °C 7.4 °C 1031.0 hPa West 5.5 km/h 7.9 km/h 46 % 0.0 mm
16:54 19.1 °C 7.2 °C 1030.0 hPa WSW 6.9 km/h 7.6 km/h 46 % 0.0 mm
16:59 19.0 °C 7.1 °C 1030.0 hPa West 3.2 km/h 7.6 km/h 46 % 0.0 mm
17:04 19.1 °C 7.2 °C 1030.0 hPa Calm   7.6 km/h 46 % 0.0 mm
17:09 19.1 °C 7.2 °C 1030.0 hPa Calm   6.4 km/h 46 % 0.0 mm
17:14 19.0 °C 7.1 °C 1030.0 hPa Calm   5.8 km/h 46 % 0.0 mm
17:19 18.6 °C 6.8 °C 1030.0 hPa NNE 4.0 km/h 8.7 km/h 46 % 0.0 mm
17:24 18.1 °C 6.6 °C 1030.0 hPa NNW 7.6 km/h 9.7 km/h 47 % 0.0 mm
17:29 17.7 °C 6.2 °C 1030.0 hPa NNE 5.8 km/h 10.8 km/h 47 % 0.0 mm
17:34 17.3 °C 6.2 °C 1030.0 hPa North 4.7 km/h 10.8 km/h 48 % 0.0 mm
17:39 17.2 °C 6.3 °C 1030.0 hPa North 7.9 km/h 10.1 km/h 49 % 0.0 mm
17:44 16.8 °C 6.4 °C 1030.0 hPa NE 6.1 km/h 7.9 km/h 50 % 0.0 mm
17:49 16.4 °C 6.3 °C 1030.0 hPa North 5.8 km/h 8.7 km/h 51 % 0.0 mm
17:54 16.0 °C 6.1 °C 1030.0 hPa NNE 6.1 km/h 8.7 km/h 52 % 0.0 mm
17:59 15.8 °C 6.2 °C 1030.0 hPa North 4.0 km/h 9.0 km/h 53 % 0.0 mm
18:04 15.4 °C 6.7 °C 1030.0 hPa North 6.4 km/h 9.0 km/h 56 % 0.0 mm
18:09 15.2 °C 6.7 °C 1030.0 hPa North 4.0 km/h 6.9 km/h 57 % 0.0 mm
18:14 14.9 °C 6.9 °C 1030.0 hPa Calm   6.9 km/h 59 % 0.0 mm
18:19 14.7 °C 7.0 °C 1030.0 hPa North 5.8 km/h 6.9 km/h 60 % 0.0 mm
18:24 14.5 °C 7.1 °C 1030.0 hPa NE 3.5 km/h 6.1 km/h 61 % 0.0 mm
18:30 14.4 °C 7.2 °C 1030.0 hPa NNE 4.0 km/h 6.9 km/h 62 % 0.0 mm
18:35 14.2 °C 7.5 °C 1030.0 hPa NNE 7.6 km/h 7.9 km/h 64 % 0.0 mm
18:40 13.9 °C 8.1 °C 1030.0 hPa NE 5.8 km/h 13.0 km/h 68 % 0.0 mm
18:45 13.6 °C 8.1 °C 1030.0 hPa NE 12.2 km/h 13.7 km/h 69 % 0.0 mm
18:50 13.5 °C 7.9 °C 1030.0 hPa NE 9.0 km/h 13.7 km/h 69 % 0.0 mm
18:55 13.3 °C 7.9 °C 1030.0 hPa NE 9.7 km/h 12.2 km/h 70 % 0.0 mm
19:00 13.1 °C 8.0 °C 1030.0 hPa NE 6.9 km/h 10.1 km/h 71 % 0.0 mm
19:05 12.9 °C 8.0 °C 1030.0 hPa NE 8.7 km/h 9.7 km/h 72 % 0.0 mm
19:10 12.7 °C 7.8 °C 1030.0 hPa NE 6.4 km/h 9.3 km/h 72 % 0.0 mm
19:15 12.6 °C 7.8 °C 1030.0 hPa NE 6.9 km/h 9.0 km/h 73 % 0.0 mm
19:20 12.3 °C 7.8 °C 1030.0 hPa NE 6.9 km/h 9.3 km/h 74 % 0.0 mm
19:25 12.2 °C 7.9 °C 1030.0 hPa NNE 6.9 km/h 9.3 km/h 75 % 0.0 mm
19:30 12.1 °C 7.8 °C 1030.0 hPa NE 5.0 km/h 9.3 km/h 75 % 0.0 mm
19:35 11.8 °C 7.6 °C 1030.0 hPa NNE 6.4 km/h 7.9 km/h 75 % 0.0 mm
19:40 11.7 °C 7.6 °C 1030.0 hPa NE 4.7 km/h 7.6 km/h 76 % 0.0 mm
19:45 11.6 °C 7.5 °C 1030.0 hPa North 4.3 km/h 7.6 km/h 76 % 0.0 mm
19:50 11.4 °C 7.8 °C 1030.0 hPa NNE 5.5 km/h 6.9 km/h 78 % 0.0 mm
19:55 11.4 °C 7.7 °C 1030.0 hPa NNE 6.1 km/h 6.9 km/h 78 % 0.0 mm
20:00 11.3 °C 7.8 °C 1030.0 hPa North 5.8 km/h 9.0 km/h 79 % 0.0 mm
20:05 11.3 °C 7.9 °C 1030.0 hPa North 5.5 km/h 10.1 km/h 80 % 0.0 mm
20:11 11.3 °C 7.8 °C 1030.0 hPa North 5.8 km/h 10.1 km/h 79 % 0.0 mm
20:16 11.2 °C 7.7 °C 1030.0 hPa North 6.1 km/h 7.9 km/h 79 % 0.0 mm
20:21 11.1 °C 7.8 °C 1030.0 hPa North 4.7 km/h 7.9 km/h 80 % 0.0 mm
20:26 10.9 °C 7.6 °C 1030.0 hPa NNE 5.0 km/h 7.9 km/h 80 % 0.0 mm
20:31 10.8 °C 7.4 °C 1030.0 hPa NNE 6.9 km/h 7.9 km/h 80 % 0.0 mm
20:36 10.7 °C 7.6 °C 1030.0 hPa NNE 6.1 km/h 7.9 km/h 81 % 0.0 mm
20:41 10.7 °C 7.7 °C 1030.0 hPa North 5.8 km/h 9.0 km/h 82 % 0.0 mm
20:46 10.5 °C 7.6 °C 1030.0 hPa North 5.8 km/h 9.0 km/h 82 % 0.0 mm
20:51 10.4 °C 7.4 °C 1030.0 hPa North 5.5 km/h 6.9 km/h 82 % 0.0 mm
20:56 10.4 °C 7.4 °C 1030.0 hPa NE 4.3 km/h 6.4 km/h 82 % 0.0 mm
21:01 10.3 °C 7.6 °C 1030.0 hPa North 6.1 km/h 6.4 km/h 83 % 0.0 mm
21:06 10.2 °C 7.4 °C 1030.0 hPa NNE 5.8 km/h 6.4 km/h 83 % 0.0 mm
21:11 10.2 °C 7.4 °C 1030.0 hPa North 5.5 km/h 6.4 km/h 83 % 0.0 mm
21:16 10.1 °C 7.3 °C 1030.0 hPa NNE 4.0 km/h 6.1 km/h 83 % 0.0 mm
21:21 9.9 °C 7.2 °C 1030.0 hPa NE 3.2 km/h 5.8 km/h 83 % 0.0 mm
21:26 9.7 °C 6.9 °C 1030.0 hPa North 4.3 km/h 5.8 km/h 83 % 0.0 mm
21:31 9.5 °C 6.8 °C 1030.0 hPa North 1.8 km/h 5.0 km/h 83 % 0.0 mm
21:36 9.3 °C 6.6 °C 1030.0 hPa North 4.0 km/h 4.0 km/h 83 % 0.0 mm
21:41 9.2 °C 6.7 °C 1030.0 hPa North 2.6 km/h 4.7 km/h 84 % 0.0 mm
21:46 9.1 °C 6.6 °C 1030.0 hPa North 2.6 km/h 4.7 km/h 84 % 0.0 mm
21:51 9.1 °C 6.7 °C 1030.0 hPa North 4.3 km/h 4.3 km/h 85 % 0.0 mm
21:56 8.9 °C 6.6 °C 1030.0 hPa Calm   4.3 km/h 85 % 0.0 mm
22:01 8.8 °C 6.4 °C 1030.0 hPa North 4.7 km/h 4.7 km/h 85 % 0.0 mm
22:06 8.7 °C 6.3 °C 1030.0 hPa North 3.2 km/h 4.7 km/h 85 % 0.0 mm
22:11 8.5 °C 6.2 °C 1030.0 hPa North 4.3 km/h 4.3 km/h 85 % 0.0 mm
22:16 8.4 °C 6.1 °C 1030.0 hPa North 1.8 km/h 4.3 km/h 85 % 0.0 mm
22:22 8.2 °C 5.8 °C 1030.0 hPa Calm   4.3 km/h 85 % 0.0 mm
22:26 8.1 °C 5.7 °C 1030.0 hPa Calm   1.8 km/h 85 % 0.0 mm
22:32 7.9 °C 5.7 °C 1030.0 hPa Calm     86 % 0.0 mm
22:37 7.7 °C 5.6 °C 1030.0 hPa Calm     86 % 0.0 mm
22:42 7.6 °C 5.3 °C 1030.0 hPa Calm     86 % 0.0 mm
22:47 7.3 °C 5.1 °C 1030.0 hPa Calm     86 % 0.0 mm
22:52 7.2 °C 5.1 °C 1030.0 hPa Calm     87 % 0.0 mm
22:57 7.2 °C 5.1 °C 1030.0 hPa Calm     87 % 0.0 mm
23:02 7.1 °C 5.2 °C 1030.0 hPa Calm     88 % 0.0 mm
23:07 6.9 °C 5.1 °C 1030.0 hPa Calm     88 % 0.0 mm
23:12 6.8 °C 5.0 °C 1030.0 hPa Calm     88 % 0.0 mm
23:17 6.7 °C 5.0 °C 1030.0 hPa Calm     89 % 0.0 mm
23:22 6.7 °C 5.0 °C 1030.0 hPa Calm     89 % 0.0 mm
23:27 6.4 °C 4.9 °C 1029.0 hPa Calm     90 % 0.0 mm
23:32 6.4 °C 4.8 °C 1029.0 hPa Calm     90 % 0.0 mm
23:37 6.3 °C 4.8 °C 1029.0 hPa Calm     90 % 0.0 mm
23:42 6.2 °C 4.7 °C 1029.0 hPa Calm     90 % 0.0 mm
23:47 6.1 °C 4.7 °C 1029.0 hPa Calm     91 % 0.0 mm
23:52 6.1 °C 4.7 °C 1029.0 hPa Calm     91 % 0.0 mm
23:57 5.9 °C 4.5 °C 1029.0 hPa Calm     91 % 0.0 mm
Le Gheer Warneton
Courtoisie de Weather Underground - 2.25 mb

Mise a jour : 16-12-17 15:46:11
Généré par Cumulus 1.9.4 (1099)